[[{"header":{"parameterUnit":"m.s-1","parameterCategory":2,"la1":30.2991,"la2":30.254,"lo1":-89.0895,"lo2":-89.0444,"dy":0.0017,"dx":0.0017,"nx":28,"ny":28,"refTime":"2023-11-17T09:00:00:Z","depth":"0","parameterNumber":2,"parameterNumberName":"U-component_of_CURRENTS"},"data":[0,0,0,0,0,0,0,0,0,0,0,0,0,0,0,0,0,0,0,0,0,0,0,0,0,0,0,0,0,0,0,0,0,0,0,0,0,0,0,0,0,0,0,0,0,0,0,0,0,0,0,0,0,0,0,0,0,0,0.4392,0.4392,0,0.4339,0.4338,0.4337,0.425,0.4249,0.4248,0.4247,0.4172,0.4171,0.417,0,0,0,0,0,0,0,0,0,0,0,0,0,0.4428,0.4427,0.4392,0.4392,0.4392,0.4339,0.4338,0.4337,0.425,0.4249,0.4248,0.4247,0.4173,0.4171,0.417,0,0,0,0,0,0,0,0,0,0,0,0,0,0.4391,0.4427,0.4392,0.4347,0.4343,0.434,0.4338,0.4336,0.4251,0.4249,0.4248,0.4246,0.4173,0.4171,0.417,0.4191,0,0,0.4165,0.4164,0,0,0,0,0,0,0,0,0.4393,0.4389,0.4354,0.4351,0.4346,0.4305,0.4323,0.4289,0.4251,0.4279,0.4247,0.4245,0.422,0.4214,0.4199,0.4187,0.4184,0.4165,0.4164,0.4163,0.4163,0,0,0,0,0,0,0,0.4396,0.4391,0.4365,0.4354,0.4349,0.4333,0.4326,0.4316,0.4254,0.4277,0.4272,0.4276,0.4216,0.4201,0.4197,0.4183,0.4165,0.4164,0.4163,0.4162,0.4215,0.4217,0,0,0,0,0,0,0.4416,0.4394,0.4367,0.4364,0.4374,0.4334,0.4325,0.4315,0.4254,0.4245,0.4278,0.4273,0.4204,0.4199,0.4194,0.4249,0.4163,0.4162,0.4161,0.4213,0.4215,0.4218,0,0,0,0,0,0,0.4417,0.4414,0.4369,0.4383,0.4377,0.4336,0.4324,0.4315,0.4308,0.4256,0.4245,0.4283,0.4203,0.4196,0.4197,0.4244,0.4161,0.416,0.421,0.4213,0.4217,0.4338,0,0,0,0,0,0,0.4418,0.4414,0.4413,0.4384,0.4378,0.4389,0.4326,0.4315,0.4316,0.4308,0.4257,0.4248,0.4201,0.42,0.4196,0.4241,0.4159,0.4207,0.4211,0.4216,0.4331,0.4345,0.4358,0,0,0,0,0,0.4419,0.4419,0.4412,0.441,0.4376,0.4392,0.4387,0.4348,0.4318,0.4332,0.4291,0.425,0.4225,0.4201,0.4195,0.424,0.4205,0.421,0.4215,0.4325,0.4343,0.4357,0,0,0,0,0,0,0.443,0.4411,0.4402,0.4395,0.4409,0.438,0.4384,0.4367,0.4344,0.4334,0.4274,0.4263,0.4288,0.4251,0.4225,0.4271,0.4212,0.4216,0.4297,0.4313,0.4326,0.4328,0.4157,0,0,0,0,0,0.4438,0.4437,0.443,0.4435,0.444,0.442,0.442,0.4406,0.4386,0.4373,0.4343,0.4314,0.4307,0.4297,0.4286,0.4306,0.4283,0.4335,0.4348,0.4359,0.4359,0.4373,0.4387,0.4235,0.4235,0.4235,0,0,0.4448,0.4439,0.4439,0.444,0.4437,0.4455,0.4414,0.4433,0.4449,0.4373,0.4383,0.4366,0.4325,0.4348,0.4356,0.4319,0.4396,0.4366,0.4376,0.4369,0.438,0.4395,0.4408,0.4239,0.4238,0.4238,0,0,0.447,0.4461,0.4466,0.4485,0.4501,0.4495,0.4511,0.4506,0.4504,0.452,0.4477,0.4486,0.4463,0.4451,0.4437,0.452,0.4473,0.4525,0.4582,0.4598,0.461,0.462,0.4629,0.464,0.4522,0.4523,0.4523,0,0.4477,0.4479,0.4479,0.4498,0.4512,0.452,0.4541,0.4555,0.4555,0.4565,0.4538,0.4534,0.451,0.4535,0.4562,0.455,0.4545,0.4524,0.4615,0.4624,0.4633,0.4639,0.4649,0.4529,0.4528,0.4528,0.4527,0,0.4504,0.4513,0.4527,0.4545,0.4572,0.4598,0.4624,0.4656,0.4654,0.4659,0.4695,0.4667,0.4656,0.467,0.4634,0.4696,0.4671,0.4638,0.4573,0.4655,0.4657,0.4665,0.4539,0.4536,0.4534,0.4533,0,0,0.4468,0.4527,0.4527,0.4539,0.4594,0.4605,0.4673,0.4714,0.4736,0.4765,0.4786,0.4806,0.4797,0.4782,0.4762,0.4779,0.4847,0.4739,0.4737,0.4745,0.4883,0.4868,0.4874,0.4831,0.4833,0.4834,0.4866,0,0.4474,0.4508,0.4544,0.4583,0.4598,0.4649,0.4695,0.4748,0.4784,0.4817,0.4836,0.4846,0.484,0.483,0.4861,0.4845,0.487,0.4841,0.4803,0.4802,0.4775,0.4883,0.4752,0.4769,0.4873,0.4874,0.4875,0,0.4461,0.4487,0.4523,0.4574,0.4584,0.4619,0.4683,0.4733,0.4816,0.4847,0.4899,0.49,0.4951,0.4913,0.4959,0.4942,0.4928,0.4916,0.4916,0.4859,0.4801,0.47,0.4779,0.4697,0.4886,0.4885,0.4885,0,0.4393,0.4454,0.4474,0.4497,0.4571,0.46,0.4645,0.4736,0.4773,0.4871,0.4887,0.4962,0.4968,0.4994,0.5002,0.4976,0.5039,0.4988,0.4966,0.4963,0.4821,0.4804,0.4808,0.5018,0.5018,0.5017,0.5017,0,0.4356,0.4362,0.4442,0.445,0.4465,0.4549,0.4584,0.4657,0.4752,0.4791,0.4885,0.4922,0.4986,0.5027,0.5032,0.5048,0.507,0.5001,0.4983,0.4863,0.485,0.4744,0.4688,0.5019,0.5018,0.5018,0.5018,0,0.4262,0.432,0.4332,0.441,0.443,0.444,0.4529,0.4547,0.4672,0.4728,0.4754,0.4895,0.4978,0.5035,0.5083,0.5067,0.4957,0.5076,0.494,0.4907,0.4791,0.4747,0.4508,0.4374,0.5047,0.5047,0.5047,0,0.4211,0.4216,0.4276,0.4264,0.4292,0.4331,0.4342,0.4486,0.4525,0.4705,0.4711,0.4842,0.4924,0.5031,0.5061,0.5095,0.4939,0.4956,0.4883,0.4797,0.4733,0.4519,0.4407,0.4743,0.474,0.4738,0.4736,0,0.4099,0.4124,0.4128,0.4124,0.4125,0.4149,0.4204,0.423,0.4396,0.4455,0.458,0.4678,0.4858,0.488,0.4967,0.4969,0.4743,0.4914,0.4849,0.4531,0.4269,0.4126,0.4713,0.4718,0.472,0.4721,0.4722,0.4723,0.3985,0.3952,0.3956,0.3932,0.3937,0.3947,0.392,0.4006,0.4059,0.4133,0.4363,0.445,0.4662,0.4796,0.477,0.4697,0.4621,0.4574,0.4539,0.4339,0.4165,0.4731,0.4705,0.4707,0.4708,0.471,0.4711,0,0.379,0.3774,0.3756,0.371,0.3653,0.3745,0.3778,0.3735,0.3727,0.3897,0.3991,0.4206,0.4284,0.4425,0.4497,0.4364,0.4124,0.4244,0.3916,0.3833,0.4377,0.4328,0.4189,0.4189,0.4189,0.4189,0.419,0.419,0.3676,0.3575,0.3573,0.3428,0.341,0.3313,0.3308,0.33,0.3384,0.3439,0.355,0.3721,0.4084,0.4259,0.4207,0.4103,0.3792,0.3616,0.3576,0.4011,0.4038,0.4064,0.4007,0.3804,0.3803,0.2879,0.2873,0.2868]},{"header":{"parameterUnit":"m.s-1","parameterCategory":2,"la1":30.2991,"la2":30.254,"lo1":-89.0895,"lo2":-89.0444,"dy":0.0017,"dx":0.0017,"nx":28,"ny":28,"refTime":"2023-11-17T09:00:00:Z","depth":"0","parameterNumber":3,"parameterNumberName":"V-component_of_CURRENTS"},"data":[0,0,0,0,0,0,0,0,0,0,0,0,0,0,0,0,0,0,0,0,0,0,0,0,0,0,0,0,0,0,0,0,0,0,0,0,0,0,0,0,0,0,0,0,0,0,0,0,0,0,0,0,0,0,0,0,0,0,-0.0091,-0.0091,0,-0.0122,-0.0122,-0.0122,-0.0137,-0.0137,-0.0137,-0.0137,-0.018,-0.0181,-0.0182,0,0,0,0,0,0,0,0,0,0,0,0,0,-0.0082,-0.0082,-0.0091,-0.0091,-0.0092,-0.0122,-0.0122,-0.0122,-0.0137,-0.0137,-0.0137,-0.0137,-0.0179,-0.0181,-0.0182,0,0,0,0,0,0,0,0,0,0,0,0,0,-0.0096,-0.0082,-0.0091,-0.0103,-0.0104,-0.0122,-0.0122,-0.0123,-0.0137,-0.0137,-0.0137,-0.0137,-0.0179,-0.018,-0.0182,-0.0191,0,0,-0.0187,-0.0188,0,0,0,0,0,0,0,0,-0.0095,-0.0097,-0.0101,-0.0102,-0.0104,-0.0126,-0.0135,-0.0146,-0.0137,-0.0124,-0.0137,-0.0138,-0.0163,-0.0166,-0.0171,-0.0193,-0.0195,-0.0187,-0.0188,-0.0189,-0.0189,0,0,0,0,0,0,0,-0.0094,-0.0096,-0.0103,-0.0101,-0.0103,-0.012,-0.0122,-0.0137,-0.0143,-0.0125,-0.0127,-0.0131,-0.0164,-0.0169,-0.0172,-0.0196,-0.0187,-0.0189,-0.019,-0.019,-0.0222,-0.0222,0,0,0,0,0,0,-0.0089,-0.0094,-0.0102,-0.0103,-0.01,-0.012,-0.0122,-0.0119,-0.0142,-0.0146,-0.0131,-0.0132,-0.0166,-0.017,-0.0174,-0.0167,-0.0189,-0.019,-0.0191,-0.0222,-0.0222,-0.0222,0,0,0,0,0,0,-0.0089,-0.0089,-0.01,-0.0101,-0.0103,-0.012,-0.0116,-0.0119,-0.0122,-0.0147,-0.015,-0.0131,-0.0167,-0.0171,-0.0177,-0.017,-0.0191,-0.0193,-0.0222,-0.0222,-0.0222,-0.0167,0,0,0,0,0,0,-0.0088,-0.0089,-0.008,-0.01,-0.0103,-0.0098,-0.0116,-0.012,-0.0125,-0.0126,-0.0148,-0.0152,-0.0167,-0.0175,-0.0179,-0.0173,-0.0194,-0.0222,-0.0222,-0.0222,-0.0169,-0.0165,-0.0162,0,0,0,0,0,-0.0088,-0.0069,-0.008,-0.008,-0.0092,-0.0098,-0.01,-0.0113,-0.0125,-0.0118,-0.0134,-0.0151,-0.0176,-0.0176,-0.0181,-0.0175,-0.0222,-0.0222,-0.0222,-0.0171,-0.0166,-0.0162,0,0,0,0,0,0,-0.0062,-0.007,-0.0081,-0.0067,-0.0079,-0.01,-0.0095,-0.011,-0.0119,-0.0121,-0.0146,-0.0151,-0.0157,-0.0174,-0.0172,-0.0184,-0.0204,-0.0205,-0.0164,-0.0159,-0.0155,-0.012,-0.0195,0,0,0,0,0,-0.0053,-0.0043,-0.0059,-0.0051,-0.0053,-0.0076,-0.008,-0.0091,-0.0105,-0.0109,-0.0128,-0.0147,-0.016,-0.0165,-0.0182,-0.0184,-0.0201,-0.0186,-0.0182,-0.0178,-0.0154,-0.0175,-0.0171,-0.0221,-0.0221,-0.0221,0,0,-0.0046,-0.0047,-0.0044,-0.0045,-0.0056,-0.0044,-0.0078,-0.008,-0.0068,-0.0112,-0.0104,-0.0136,-0.016,-0.0162,-0.0166,-0.0173,-0.0177,-0.0178,-0.0175,-0.0152,-0.0175,-0.017,-0.0165,-0.022,-0.022,-0.022,0,0,-0.0015,-0.0022,0.0001,-0.0002,-0.0011,-0.0022,-0.0021,-0.0041,-0.0046,-0.005,-0.0079,-0.0099,-0.0123,-0.0133,-0.0141,-0.0127,-0.016,-0.0144,-0.009,-0.0112,-0.0107,-0.0103,-0.0132,-0.0131,-0.0138,-0.0137,-0.0137,0,-0.0,0.0027,0.0005,0.0028,0.0036,-0.0007,0.0022,0.001,-0.0011,-0.0002,-0.0038,-0.0068,-0.0103,-0.0088,-0.0091,-0.0116,-0.0137,-0.0104,-0.0105,-0.0101,-0.0099,-0.0129,-0.0129,-0.0135,-0.0135,-0.0135,-0.0136,0,0.005,0.007,0.0083,0.0102,0.0105,0.0119,0.0103,0.0103,0.008,0.007,0.0066,0.0011,0.0001,-0.0029,-0.0057,-0.0051,-0.0077,-0.0101,-0.0112,-0.009,-0.0124,-0.0125,-0.0131,-0.0132,-0.0133,-0.0133,0,0,0.0101,0.0118,0.0126,0.0154,0.0149,0.0166,0.0181,0.02,0.0237,0.018,0.0217,0.0155,0.0118,0.0105,0.0054,0.0026,0.0003,-0.0025,-0.0028,-0.0044,-0.0048,-0.0057,-0.006,-0.0024,-0.0023,-0.0023,-0.0085,0,0.0154,0.0219,0.0209,0.0271,0.0307,0.028,0.0311,0.0316,0.0309,0.033,0.0262,0.0265,0.0172,0.0162,0.0119,0.0046,0.0007,0.0023,-0.0073,-0.0076,-0.0079,-0.0058,-0.0015,-0.0066,-0.0086,-0.0086,-0.0086,0,0.0221,0.0259,0.0332,0.0381,0.0396,0.0426,0.0485,0.0505,0.0511,0.0504,0.048,0.0421,0.0374,0.0282,0.0168,0.0182,0.0074,-0.0001,-0.0005,-0.0025,-0.0085,-0.0089,-0.0067,-0.0274,-0.0088,-0.0088,-0.0087,0,0.0295,0.0351,0.042,0.0434,0.0477,0.0516,0.0542,0.0568,0.0617,0.0619,0.0643,0.0567,0.0545,0.0403,0.023,0.0199,0.0103,0.004,-0.0072,-0.0075,-0.006,-0.0061,-0.0234,-0.0047,-0.0046,-0.0046,-0.0046,0,0.0368,0.0425,0.0467,0.0507,0.0611,0.0605,0.0713,0.0728,0.077,0.0863,0.0741,0.0785,0.0574,0.0482,0.0294,0.0128,0.0149,-0.0046,-0.0082,-0.0043,-0.0042,-0.0239,-0.0357,-0.0049,-0.0048,-0.0048,-0.0047,0,0.0437,0.0458,0.0549,0.0616,0.065,0.0728,0.0826,0.0904,0.0919,0.1032,0.1033,0.0963,0.0855,0.0629,0.0425,0.0238,-0.0055,-0.0016,0.0041,0.0014,-0.0294,-0.0409,-0.0601,-0.07,-0.0149,-0.0149,-0.015,0,0.0476,0.0531,0.0639,0.0712,0.0751,0.0859,0.0942,0.0985,0.1078,0.1161,0.1228,0.1147,0.1145,0.0825,0.0487,0.0174,-0.0048,-0.0023,-0.0082,-0.029,-0.0445,-0.0539,-0.0617,-0.0055,-0.0054,-0.0054,-0.0053,0,0.0563,0.0602,0.0681,0.0824,0.0929,0.1049,0.1172,0.1269,0.135,0.1454,0.1579,0.1582,0.1284,0.1013,0.056,0.0318,-0.0158,-0.0026,-0.025,-0.0383,-0.0485,-0.0603,-0.0052,-0.005,-0.0051,-0.0051,-0.0051,-0.0051,0.0638,0.071,0.0816,0.0953,0.1078,0.1235,0.1353,0.1503,0.1686,0.1867,0.1854,0.1931,0.1501,0.0905,0.0527,-0.012,-0.0154,-0.0319,-0.0442,-0.0519,-0.0613,-0.0056,-0.009,-0.009,-0.0091,-0.0091,-0.0092,0,0.0729,0.081,0.0939,0.1104,0.1246,0.1292,0.1505,0.1643,0.189,0.2084,0.2209,0.2104,0.1539,0.0931,0.0069,-0.0428,-0.063,-0.0708,-0.0841,-0.0903,-0.0405,-0.0399,-0.0488,-0.0488,-0.0488,-0.0488,-0.0488,-0.0487,0.0787,0.0917,0.0974,0.1217,0.1335,0.1532,0.166,0.1887,0.2079,0.2362,0.2477,0.251,0.2101,0.0526,-0.0576,-0.0853,-0.1198,-0.1274,-0.1474,-0.1147,-0.112,-0.1095,-0.1119,-0.1357,-0.1358,-0.19,-0.1905,-0.191]}],[{"header":{"parameterUnit":"m.s-1","parameterCategory":2,"la1":30.2991,"la2":30.254,"lo1":-89.0895,"lo2":-89.0444,"dy":0.0017,"dx":0.0017,"nx":28,"ny":28,"refTime":"2023-11-17T09:00:00:Z","depth":"2","parameterNumber":2,"parameterNumberName":"U-component_of_CURRENTS"},"data":[0,0,0,0,0,0,0,0,0,0,0,0,0,0,0,0,0,0,0,0,0,0,0,0,0,0,0,0,0,0,0,0,0,0,0,0,0,0,0,0,0,0,0,0,0,0,0,0,0,0,0,0,0,0,0,0,0,0,0.3276,0.3276,0,0.3326,0.3327,0.3327,0.3342,0.3342,0.3342,0.3342,0.336,0.3361,0.3361,0,0,0,0,0,0,0,0,0,0,0,0,0,0.3195,0.3196,0.3276,0.3277,0.3278,0.3326,0.3327,0.3327,0.3342,0.3342,0.3342,0.3342,0.336,0.3361,0.3361,0,0,0,0,0,0,0,0,0,0,0,0,0,0.3233,0.3196,0.3275,0.3293,0.3296,0.3326,0.3327,0.3327,0.3342,0.3342,0.3342,0.3342,0.336,0.3361,0.3361,0.3364,0,0,0.3363,0.3363,0,0,0,0,0,0,0,0,0.3231,0.3235,0.329,0.3292,0.3295,0.3331,0.3305,0.3339,0.3342,0.3321,0.3342,0.3342,0.335,0.3351,0.3356,0.3365,0.3365,0.3363,0.3364,0.3364,0.3364,0,0,0,0,0,0,0,0.3228,0.3233,0.3292,0.3291,0.3294,0.33,0.3305,0.3311,0.3331,0.3322,0.3324,0.3336,0.335,0.3355,0.3356,0.3366,0.3363,0.3364,0.3364,0.3365,0.3458,0.346,0,0,0,0,0,0,0.3229,0.3231,0.3291,0.3294,0.3266,0.3302,0.3307,0.3316,0.3331,0.3335,0.3335,0.3336,0.3354,0.3356,0.3357,0.3424,0.3364,0.3365,0.3365,0.3456,0.3459,0.3461,0,0,0,0,0,0,0.3227,0.3233,0.3289,0.3266,0.3274,0.3303,0.3313,0.3317,0.334,0.3342,0.3345,0.3356,0.3354,0.3356,0.3391,0.3422,0.3365,0.3365,0.3454,0.3457,0.346,0.3517,0,0,0,0,0,0,0.3224,0.3232,0.3248,0.3266,0.3276,0.3324,0.3314,0.3318,0.3347,0.3349,0.336,0.3361,0.3354,0.339,0.3392,0.3422,0.3366,0.3451,0.3455,0.3459,0.3512,0.3521,0.3529,0,0,0,0,0,0.3221,0.3239,0.3248,0.3256,0.3293,0.3326,0.3331,0.3349,0.3348,0.3367,0.3381,0.3362,0.3416,0.3393,0.3394,0.3425,0.3449,0.3454,0.3458,0.3508,0.3519,0.3529,0,0,0,0,0,0,0.3209,0.3243,0.3253,0.328,0.331,0.333,0.3351,0.336,0.3385,0.339,0.3384,0.3387,0.3434,0.3424,0.3398,0.3466,0.3431,0.3436,0.3469,0.3479,0.3488,0.3502,0.3367,0,0,0,0,0,0.3215,0.324,0.327,0.3295,0.331,0.3333,0.3351,0.3366,0.3388,0.3399,0.341,0.3426,0.3452,0.3461,0.3481,0.351,0.3517,0.3534,0.3542,0.3549,0.3564,0.3611,0.3625,0.3476,0.3476,0.3476,0,0,0.3217,0.3241,0.3254,0.3296,0.3316,0.3348,0.3344,0.338,0.341,0.3396,0.3442,0.346,0.347,0.3513,0.3532,0.3507,0.3596,0.3555,0.3561,0.3572,0.3617,0.3631,0.3644,0.3479,0.3479,0.3478,0,0,0.3232,0.3255,0.3281,0.331,0.3355,0.3371,0.3387,0.3421,0.3442,0.3484,0.3494,0.3535,0.3556,0.3583,0.3593,0.3661,0.3646,0.3666,0.371,0.3755,0.3767,0.3778,0.3801,0.3814,0.3661,0.3661,0.3661,0,0.3237,0.3265,0.3295,0.3329,0.3353,0.3384,0.3414,0.3446,0.349,0.3519,0.3506,0.3586,0.3591,0.3658,0.3685,0.368,0.3696,0.3665,0.3765,0.3777,0.3787,0.3807,0.382,0.3664,0.3664,0.3664,0.3663,0,0.3264,0.3295,0.3313,0.3365,0.3401,0.343,0.3477,0.3523,0.3545,0.3576,0.3651,0.3671,0.372,0.3729,0.3724,0.3809,0.3794,0.3776,0.3735,0.3805,0.3822,0.3835,0.3669,0.3668,0.3667,0.3666,0,0,0.3242,0.3317,0.3321,0.3348,0.3417,0.3443,0.3514,0.3579,0.3629,0.3678,0.3739,0.3796,0.382,0.3837,0.3848,0.3881,0.396,0.3862,0.3863,0.3877,0.4053,0.4004,0.4013,0.3961,0.3964,0.3966,0.4033,0,0.3248,0.3301,0.3344,0.3398,0.3425,0.3488,0.3547,0.362,0.3677,0.3749,0.3799,0.3862,0.3857,0.3888,0.393,0.3962,0.3998,0.3943,0.399,0.3992,0.3934,0.4028,0.3708,0.3739,0.4045,0.4047,0.4049,0,0.3247,0.3284,0.3331,0.3408,0.3426,0.3474,0.3575,0.3637,0.3758,0.3804,0.3893,0.3936,0.4028,0.3993,0.4096,0.4063,0.4073,0.408,0.4082,0.4028,0.3967,0.3722,0.375,0.407,0.4068,0.4066,0.4065,0,0.3189,0.3269,0.33,0.3325,0.3424,0.3472,0.3536,0.3657,0.372,0.3857,0.391,0.4023,0.4079,0.4131,0.4173,0.4143,0.426,0.4212,0.4176,0.4171,0.3905,0.3873,0.428,0.428,0.428,0.4279,0.4279,0,0.3155,0.3182,0.3279,0.3294,0.3351,0.3442,0.3523,0.3613,0.3743,0.3821,0.3939,0.4016,0.4119,0.4197,0.4214,0.4252,0.4302,0.4213,0.4202,0.3916,0.3886,0.4172,0.4159,0.4282,0.4281,0.4281,0.428,0,0.3082,0.3139,0.3186,0.3289,0.3323,0.3372,0.3504,0.356,0.3702,0.3813,0.3862,0.4035,0.4153,0.4234,0.4323,0.4298,0.4334,0.4325,0.3982,0.3931,0.4198,0.4187,0.4293,0.4293,0.4292,0.4291,0.4291,0,0.3047,0.3062,0.3164,0.3187,0.3234,0.3319,0.3367,0.3521,0.3589,0.3814,0.3851,0.403,0.4125,0.4257,0.4258,0.4294,0.4349,0.3996,0.3886,0.423,0.4207,0.4197,0.4187,0.3543,0.3536,0.3531,0.3527,0,0.298,0.3022,0.3057,0.3106,0.3155,0.3207,0.3301,0.3349,0.3532,0.3627,0.3771,0.3878,0.4046,0.3965,0.4041,0.4008,0.397,0.389,0.4343,0.3606,0.3532,0.3507,0.352,0.3479,0.3484,0.3487,0.349,0.3492,0.2929,0.2934,0.2976,0.3007,0.3053,0.3074,0.307,0.3173,0.3252,0.3365,0.3572,0.3619,0.3706,0.3675,0.3586,0.3518,0.3785,0.3593,0.3605,0.3623,0.3541,0.3472,0.3391,0.3395,0.3398,0.3402,0.3404,0,0.2837,0.2844,0.2868,0.2883,0.2858,0.294,0.2989,0.2951,0.2966,0.3126,0.3219,0.3041,0.3033,0.3113,0.2955,0.2979,0.2894,0.2842,0.269,0.2743,0.2789,0.2658,0.2277,0.2273,0.2269,0.2265,0,0,0.2786,0.2751,0.2749,0.267,0.268,0.2609,0.2601,0.258,0.2637,0.2625,0.2642,0.2896,0.304,0.2611,0.2575,0.2393,0.2531,0.2298,0.3214,0.309,0.313,0.3254,0.3119,0,0,0,0,0]},{"header":{"parameterUnit":"m.s-1","parameterCategory":2,"la1":30.2991,"la2":30.254,"lo1":-89.0895,"lo2":-89.0444,"dy":0.0017,"dx":0.0017,"nx":28,"ny":28,"refTime":"2023-11-17T09:00:00:Z","depth":"2","parameterNumber":3,"parameterNumberName":"V-component_of_CURRENTS"},"data":[0,0,0,0,0,0,0,0,0,0,0,0,0,0,0,0,0,0,0,0,0,0,0,0,0,0,0,0,0,0,0,0,0,0,0,0,0,0,0,0,0,0,0,0,0,0,0,0,0,0,0,0,0,0,0,0,0,0,0.019,0.019,0,0.0121,0.012,0.0119,0.0069,0.0069,0.0069,0.0068,0.0011,0.001,0.0009,0,0,0,0,0,0,0,0,0,0,0,0,0,0.023,0.023,0.019,0.0189,0.0189,0.0121,0.012,0.0119,0.007,0.0069,0.0069,0.0068,0.0012,0.001,0.0009,0,0,0,0,0,0,0,0,0,0,0,0,0,0.0192,0.023,0.019,0.0156,0.0152,0.0121,0.012,0.0119,0.007,0.0069,0.0068,0.0068,0.0012,0.0011,0.0009,0.0009,0,0,0.0003,0.0003,0,0,0,0,0,0,0,0,0.0194,0.0191,0.0162,0.0158,0.0154,0.0103,0.0113,0.0083,0.007,0.0101,0.0068,0.0068,0.0044,0.004,0.0027,0.0007,0.0004,0.0003,0.0002,0.0002,0.0001,0,0,0,0,0,0,0,0.0197,0.0193,0.0162,0.0161,0.0156,0.0127,0.0121,0.0107,0.0076,0.0098,0.0094,0.0087,0.0042,0.0029,0.0026,0.0003,0.0003,0.0002,0.0001,0.0,-0.0029,-0.0029,0,0,0,0,0,0,0.021,0.0196,0.0165,0.016,0.0174,0.0127,0.0121,0.012,0.0076,0.0069,0.0088,0.0085,0.0032,0.0028,0.0023,0.0032,0.0002,-0.0,-0.0001,-0.003,-0.0029,-0.0029,0,0,0,0,0,0,0.0211,0.0208,0.0167,0.0176,0.0169,0.0127,0.0127,0.0119,0.0109,0.0068,0.0061,0.0086,0.0032,0.0026,0.0014,0.0029,-0.0001,-0.0002,-0.003,-0.0029,-0.0029,0.0043,0,0,0,0,0,0,0.0213,0.0209,0.0213,0.0178,0.0169,0.0162,0.0127,0.0118,0.0105,0.0101,0.0064,0.0058,0.0031,0.0017,0.0013,0.0026,-0.0004,-0.003,-0.003,-0.0029,0.0041,0.0046,0.0051,0,0,0,0,0,0.0214,0.0229,0.0214,0.021,0.0176,0.0163,0.0157,0.0124,0.0106,0.0111,0.008,0.0059,0.0017,0.0016,0.0011,0.0024,-0.003,-0.003,-0.0029,0.0038,0.0045,0.0051,0,0,0,0,0,0,0.0249,0.0225,0.0207,0.0213,0.0193,0.0155,0.0155,0.0132,0.0111,0.0106,0.0066,0.0058,0.0051,0.0028,0.0028,0.0015,-0.0011,-0.0012,0.0042,0.0048,0.0053,0.0075,-0.0005,0,0,0,0,0,0.0259,0.0263,0.0233,0.0237,0.0231,0.0194,0.0183,0.0163,0.0138,0.0128,0.01,0.007,0.0049,0.0041,0.0017,0.0018,-0.0016,0.002,0.0025,0.003,0.0043,-0.0002,0.0001,-0.0027,-0.0027,-0.0027,0,0,0.0274,0.0259,0.0261,0.0244,0.0225,0.0232,0.0187,0.018,0.0185,0.0127,0.0126,0.0088,0.0051,0.0045,0.004,0.003,0.0019,0.0031,0.0035,0.0046,-0.0001,0.0002,0.0004,-0.0027,-0.0027,-0.0027,0,0,0.0309,0.0294,0.0309,0.03,0.028,0.0262,0.0265,0.0233,0.0219,0.021,0.0167,0.014,0.0111,0.0085,0.0069,0.009,0.0045,0.0081,0.0131,0.0087,0.0089,0.0091,0.005,0.0047,0.0087,0.0087,0.0087,0,0.0327,0.0343,0.0312,0.0326,0.0328,0.0283,0.0307,0.0289,0.0256,0.025,0.0222,0.0166,0.0131,0.0124,0.0126,0.0104,0.0071,0.0113,0.0095,0.0096,0.0096,0.0053,0.0049,0.0091,0.009,0.009,0.009,0,0.0373,0.0387,0.0398,0.0403,0.0401,0.0415,0.039,0.0385,0.0359,0.0333,0.0312,0.0252,0.0222,0.0201,0.0171,0.016,0.0132,0.0104,0.0083,0.0103,0.0057,0.0051,0.0096,0.0095,0.0094,0.0093,0,0,0.042,0.043,0.0436,0.0455,0.0446,0.0456,0.0466,0.0465,0.048,0.0427,0.0432,0.0374,0.0331,0.031,0.0259,0.0219,0.0184,0.0171,0.0166,0.0138,0.0088,0.0072,0.0063,0.0151,0.015,0.015,0.0054,0,0.0469,0.0518,0.0507,0.056,0.0587,0.0558,0.058,0.0569,0.0545,0.0538,0.0463,0.0448,0.0377,0.0363,0.031,0.022,0.0173,0.0213,0.0066,0.0062,0.0051,0.0058,0.0091,0.0009,0.0049,0.0048,0.0047,0,0.0526,0.0552,0.0613,0.0649,0.0659,0.0686,0.0713,0.0724,0.0696,0.0676,0.0631,0.0567,0.0506,0.0437,0.0294,0.0322,0.0216,0.0135,0.0128,0.0088,0.0036,-0.0006,-0.0003,0.0037,0.0038,0.0039,0.0039,0,0.0585,0.0631,0.0687,0.0698,0.0729,0.0756,0.0774,0.0769,0.0795,0.0764,0.0769,0.0672,0.0637,0.0491,0.032,0.0306,0.0155,0.011,-0.0008,-0.0011,-0.0023,-0.0026,0.0003,0.0003,0.0003,0.0003,0.0004,0,0.0649,0.0692,0.0724,0.0756,0.0836,0.0829,0.0903,0.0902,0.0913,0.0962,0.0849,0.0859,0.0648,0.0532,0.0357,0.0169,0.018,0.0006,-0.0034,0.0002,0.0003,-0.0004,-0.0004,-0.0,0.0001,0.0001,0.0002,0,0.0705,0.0722,0.079,0.0841,0.0868,0.0926,0.0998,0.1046,0.1045,0.1102,0.1098,0.1001,0.0856,0.0632,0.0402,0.0236,0.0044,-0.0031,0.0029,-0.0002,-0.0107,-0.0101,-0.0174,-0.0176,-0.0177,-0.0178,-0.0178,0,0.0735,0.0778,0.086,0.0911,0.094,0.1024,0.1085,0.1115,0.1174,0.12,0.1237,0.1117,0.1057,0.0708,0.0395,0.0088,0.0043,-0.0091,-0.0118,-0.0091,-0.0124,-0.0117,-0.011,-0.0113,-0.0113,-0.0113,-0.0113,0,0.0794,0.0823,0.088,0.0988,0.1066,0.1163,0.1254,0.1326,0.1375,0.1427,0.1474,0.1427,0.1103,0.0801,0.0375,0.0169,-0.0041,-0.0104,-0.0092,-0.0066,-0.0039,-0.0069,-0.0064,-0.0115,-0.0114,-0.0114,-0.0114,-0.0114,0.0835,0.0888,0.0963,0.1069,0.1165,0.1291,0.1383,0.1486,0.1607,0.1692,0.165,0.159,0.1243,0.0705,0.0333,-0.0058,-0.004,-0.018,-0.0178,-0.0175,-0.0143,-0.012,-0.0205,-0.0205,-0.0205,-0.0206,-0.0206,0,0.0881,0.0941,0.1036,0.1162,0.1273,0.1321,0.1487,0.1582,0.174,0.181,0.1846,0.1524,0.1175,0.0765,0.0187,-0.0153,-0.0177,-0.0262,-0.0219,-0.0214,-0.0211,-0.018,-0.0252,-0.0253,-0.0254,-0.0255,0,0,0.0904,0.0993,0.1042,0.1225,0.1323,0.1482,0.1585,0.1734,0.183,0.1904,0.1873,0.1795,0.1305,0.088,0.0413,0.0074,0.0011,0.0012,0.0089,0.0202,0.0209,-0.0121,-0.0062,0,0,0,0,0]}],[{"header":{"parameterUnit":"m.s-1","parameterCategory":2,"la1":30.2991,"la2":30.254,"lo1":-89.0895,"lo2":-89.0444,"dy":0.0017,"dx":0.0017,"nx":28,"ny":28,"refTime":"2023-11-17T09:00:00:Z","depth":"4","parameterNumber":2,"parameterNumberName":"U-component_of_CURRENTS"},"data":[0,0,0,0,0,0,0,0,0,0,0,0,0,0,0,0,0,0,0,0,0,0,0,0,0,0,0,0,0,0,0,0,0,0,0,0,0,0,0,0,0,0,0,0,0,0,0,0,0,0,0,0,0,0,0,0,0,0,0.2078,0.208,0,0.2179,0.218,0.2181,0.2263,0.2264,0.2265,0.2266,0.237,0.2372,0.2374,0,0,0,0,0,0,0,0,0,0,0,0,0,0.1948,0.195,0.2078,0.208,0.2081,0.2179,0.218,0.2181,0.2263,0.2264,0.2265,0.2266,0.237,0.2372,0.2374,0,0,0,0,0,0,0,0,0,0,0,0,0,0.202,0.1951,0.2078,0.2136,0.2142,0.2179,0.218,0.2182,0.2262,0.2264,0.2266,0.2267,0.2369,0.2371,0.2374,0.2357,0,0,0.2382,0.2383,0,0,0,0,0,0,0,0,0.2016,0.2024,0.2126,0.2132,0.2139,0.2213,0.2173,0.2241,0.2262,0.2214,0.2266,0.2268,0.2318,0.2325,0.2336,0.2362,0.2366,0.2382,0.2384,0.2385,0.2386,0,0,0,0,0,0,0,0.2011,0.202,0.2115,0.2127,0.2135,0.2154,0.2166,0.2186,0.2253,0.2218,0.2225,0.224,0.2322,0.2334,0.234,0.2368,0.2382,0.2384,0.2386,0.2387,0.2536,0.2538,0,0,0,0,0,0,0.2003,0.2016,0.2112,0.2119,0.2083,0.2155,0.2168,0.2185,0.2253,0.2266,0.2239,0.2244,0.2328,0.2336,0.2344,0.2456,0.2385,0.2387,0.2389,0.2534,0.2537,0.2539,0,0,0,0,0,0,0.2,0.201,0.2108,0.2072,0.2086,0.2156,0.2174,0.2186,0.2246,0.2269,0.2282,0.2292,0.233,0.234,0.2411,0.2456,0.2389,0.2391,0.2531,0.2535,0.2538,0.2599,0,0,0,0,0,0,0.1995,0.2008,0.2039,0.2071,0.2088,0.2161,0.2173,0.2187,0.2252,0.226,0.2318,0.2327,0.2332,0.2407,0.2414,0.2459,0.2393,0.2528,0.2532,0.2537,0.2594,0.2604,0.2613,0,0,0,0,0,0.199,0.2018,0.204,0.2053,0.212,0.2162,0.2173,0.2226,0.2253,0.2285,0.2333,0.2328,0.244,0.2411,0.2418,0.2465,0.2526,0.2531,0.2536,0.259,0.2602,0.2613,0,0,0,0,0,0,0.1979,0.203,0.2054,0.2098,0.2143,0.2178,0.2222,0.225,0.2311,0.2336,0.2354,0.2366,0.2448,0.2449,0.2416,0.2523,0.2484,0.2491,0.2522,0.2534,0.2543,0.2553,0.2395,0,0,0,0,0,0.1988,0.2029,0.2071,0.2113,0.214,0.2188,0.2222,0.2256,0.2303,0.2335,0.2376,0.2422,0.2466,0.2496,0.2531,0.2583,0.2589,0.262,0.263,0.2637,0.2653,0.2703,0.2718,0.2557,0.2557,0.2557,0,0,0.1997,0.2032,0.2057,0.2116,0.2158,0.2201,0.2214,0.2278,0.2324,0.2334,0.2426,0.2461,0.249,0.2557,0.2592,0.2568,0.2687,0.2644,0.2651,0.2662,0.271,0.2726,0.274,0.256,0.256,0.2559,0,0,0.2019,0.2068,0.2105,0.2146,0.2216,0.2242,0.227,0.2332,0.2379,0.2452,0.2481,0.2548,0.2608,0.2642,0.2662,0.2745,0.2738,0.2762,0.2815,0.2864,0.2877,0.2889,0.291,0.2923,0.2762,0.2763,0.2763,0,0.2033,0.2079,0.2124,0.2168,0.2209,0.2265,0.231,0.2359,0.244,0.2484,0.2496,0.2621,0.2646,0.2728,0.2764,0.2766,0.2787,0.2765,0.2875,0.2887,0.2898,0.2917,0.293,0.2766,0.2766,0.2765,0.2765,0,0.2065,0.2122,0.2151,0.2224,0.2272,0.2324,0.2387,0.2456,0.2516,0.256,0.2672,0.2714,0.2791,0.2809,0.2814,0.2913,0.2899,0.2882,0.2841,0.2918,0.2932,0.2946,0.2771,0.277,0.2769,0.2768,0,0,0.2045,0.2151,0.2168,0.221,0.2307,0.2343,0.2437,0.2523,0.2594,0.2678,0.2765,0.2852,0.2893,0.2921,0.2945,0.2988,0.3079,0.2979,0.298,0.299,0.3181,0.2986,0.2981,0.3087,0.309,0.3092,0.3156,0,0.2062,0.2138,0.2195,0.228,0.2322,0.2409,0.2485,0.2576,0.2661,0.276,0.283,0.2925,0.2929,0.2985,0.3034,0.3078,0.3119,0.3062,0.3114,0.3115,0.2924,0.2992,0.3101,0.3165,0.3168,0.3171,0.3172,0,0.2067,0.212,0.22,0.2306,0.2337,0.2406,0.2542,0.262,0.2764,0.2833,0.2944,0.3005,0.3116,0.3094,0.321,0.318,0.3198,0.321,0.3212,0.3019,0.2944,0.3076,0.3196,0.3194,0.3192,0.319,0.3189,0,0.2005,0.212,0.2184,0.2223,0.2353,0.2426,0.2511,0.2655,0.2732,0.2903,0.2974,0.3102,0.3184,0.3241,0.3292,0.327,0.3387,0.3347,0.3183,0.3169,0.3297,0.3283,0.342,0.342,0.342,0.342,0.342,0,0.1972,0.2031,0.2173,0.2206,0.2301,0.241,0.2531,0.2637,0.2788,0.2878,0.302,0.3097,0.3231,0.3309,0.333,0.3297,0.3423,0.3205,0.3178,0.332,0.3309,0.3305,0.3291,0.3422,0.3422,0.3421,0.3421,0,0.1894,0.1984,0.2069,0.2221,0.2277,0.2355,0.2534,0.2605,0.2771,0.2896,0.2958,0.3129,0.3229,0.3319,0.3413,0.3322,0.3322,0.3277,0.343,0.3409,0.3059,0.3048,0.3086,0.308,0.3075,0.307,0.3067,0,0.1856,0.1893,0.2065,0.2119,0.2201,0.2332,0.2408,0.2585,0.2658,0.2886,0.2919,0.3088,0.3182,0.3144,0.3261,0.3276,0.324,0.3205,0.3122,0.3057,0.3029,0.3026,0.3022,0.3058,0.3057,0.3056,0.3054,0,0.1783,0.1868,0.1935,0.2045,0.2142,0.2226,0.2355,0.2386,0.2582,0.2753,0.2812,0.2864,0.2963,0.3021,0.3058,0.3065,0.3207,0.3149,0.3159,0.308,0.3024,0.3,0.3002,0.3036,0.3039,0.304,0.3041,0,0.1739,0.1768,0.1867,0.1947,0.2051,0.2082,0.217,0.2244,0.2332,0.2572,0.2592,0.2767,0.2934,0.2914,0.2954,0.2943,0.2891,0.2777,0.2805,0.2827,0.2713,0.2602,0.247,0,0,0,0,0,0.1677,0.1686,0.1752,0.1818,0.1909,0.1968,0.2107,0.2194,0.2382,0.2355,0.2462,0.2543,0.2598,0.2691,0.2627,0.2849,0.2909,0.2762,0.2793,0.2935,0.2956,0.2846,0,0,0,0,0,0,0.1631,0.1688,0.1702,0.1687,0.1703,0.178,0.1859,0.1989,0.1982,0.2186,0.2228,0.2383,0.2477,0.2606,0.2576,0.2605,0.2569,0.2878,0.2871,0.2923,0.2942,0.2959,0.2854,0,0,0,0,0]},{"header":{"parameterUnit":"m.s-1","parameterCategory":2,"la1":30.2991,"la2":30.254,"lo1":-89.0895,"lo2":-89.0444,"dy":0.0017,"dx":0.0017,"nx":28,"ny":28,"refTime":"2023-11-17T09:00:00:Z","depth":"4","parameterNumber":3,"parameterNumberName":"V-component_of_CURRENTS"},"data":[0,0,0,0,0,0,0,0,0,0,0,0,0,0,0,0,0,0,0,0,0,0,0,0,0,0,0,0,0,0,0,0,0,0,0,0,0,0,0,0,0,0,0,0,0,0,0,0,0,0,0,0,0,0,0,0,0,0,0.0178,0.0178,0,0.013,0.013,0.0129,0.0094,0.0094,0.0093,0.0093,0.0049,0.0048,0.0047,0,0,0,0,0,0,0,0,0,0,0,0,0,0.0204,0.0204,0.0178,0.0178,0.0177,0.013,0.013,0.0129,0.0094,0.0094,0.0093,0.0093,0.0049,0.0048,0.0047,0,0,0,0,0,0,0,0,0,0,0,0,0,0.0178,0.0204,0.0178,0.0154,0.0151,0.013,0.013,0.0129,0.0094,0.0094,0.0093,0.0093,0.005,0.0049,0.0047,0.0048,0,0,0.0043,0.0043,0,0,0,0,0,0,0,0,0.0179,0.0177,0.0158,0.0156,0.0153,0.0118,0.0122,0.0102,0.0094,0.0116,0.0093,0.0092,0.0073,0.007,0.0061,0.0046,0.0044,0.0043,0.0042,0.0042,0.0041,0,0,0,0,0,0,0,0.0181,0.0179,0.0159,0.0158,0.0154,0.0133,0.0129,0.0118,0.0097,0.0114,0.0111,0.0106,0.0071,0.0063,0.006,0.0043,0.0043,0.0042,0.0041,0.004,0.002,0.0021,0,0,0,0,0,0,0.019,0.0181,0.0161,0.0158,0.0165,0.0133,0.0129,0.0129,0.0097,0.0092,0.0107,0.0105,0.0065,0.0062,0.0058,0.0069,0.0042,0.004,0.004,0.002,0.0021,0.0021,0,0,0,0,0,0,0.0191,0.0189,0.0163,0.0168,0.0163,0.0134,0.0134,0.0129,0.0123,0.0092,0.0086,0.0107,0.0065,0.006,0.0054,0.0066,0.004,0.0039,0.002,0.002,0.0021,0.0082,0,0,0,0,0,0,0.0192,0.019,0.0196,0.0169,0.0163,0.0161,0.0134,0.0128,0.0121,0.0118,0.0091,0.0086,0.0064,0.0056,0.0052,0.0064,0.0037,0.002,0.002,0.0021,0.0079,0.0084,0.0088,0,0,0,0,0,0.0193,0.0206,0.0196,0.0194,0.0171,0.0161,0.0157,0.0134,0.0121,0.0126,0.0105,0.0087,0.0056,0.0055,0.0051,0.0062,0.0019,0.002,0.0021,0.0077,0.0083,0.0088,0,0,0,0,0,0,0.022,0.0203,0.0192,0.0199,0.0185,0.0156,0.0158,0.0141,0.0127,0.0125,0.0094,0.0088,0.0085,0.0065,0.0065,0.0056,0.0034,0.0033,0.0078,0.0083,0.0088,0.0104,0.0036,0,0,0,0,0,0.023,0.0235,0.0213,0.0219,0.0215,0.0188,0.0181,0.0166,0.0148,0.0142,0.0121,0.0099,0.0083,0.0078,0.006,0.0061,0.0029,0.0063,0.0068,0.0072,0.0081,0.0037,0.0039,0.0023,0.0023,0.0023,0,0,0.0242,0.0233,0.0236,0.0225,0.0212,0.0218,0.0184,0.018,0.0186,0.014,0.0144,0.0116,0.0086,0.0084,0.0081,0.007,0.0059,0.0072,0.0076,0.0083,0.0038,0.0039,0.0041,0.0023,0.0023,0.0023,0,0,0.027,0.0262,0.0276,0.027,0.0257,0.0244,0.0247,0.0224,0.0215,0.0212,0.0178,0.0158,0.0139,0.0117,0.0104,0.0123,0.0083,0.0117,0.0156,0.0114,0.0115,0.0116,0.0076,0.0073,0.0121,0.0121,0.0122,0,0.0285,0.0299,0.0279,0.029,0.0293,0.0261,0.0279,0.0268,0.0245,0.0242,0.0223,0.0182,0.0155,0.0147,0.0151,0.0134,0.0104,0.0141,0.0121,0.012,0.012,0.0079,0.0075,0.0124,0.0124,0.0124,0.0124,0,0.032,0.0334,0.0343,0.035,0.0351,0.0362,0.0345,0.0345,0.0328,0.031,0.0296,0.0251,0.0227,0.0211,0.0189,0.0176,0.0153,0.013,0.011,0.0125,0.0081,0.0075,0.0129,0.0128,0.0127,0.0126,0,0,0.0352,0.0366,0.0371,0.0389,0.0386,0.0394,0.0406,0.0408,0.042,0.0384,0.0388,0.0346,0.0313,0.0296,0.0256,0.0219,0.0184,0.0181,0.0177,0.0147,0.0092,0.0079,0.0071,0.0157,0.0156,0.0156,0.0063,0,0.0387,0.0427,0.0423,0.0468,0.049,0.0474,0.0494,0.0488,0.0472,0.0467,0.0411,0.04,0.0348,0.0338,0.0292,0.0214,0.0171,0.0211,0.0077,0.0073,0.0064,0.0065,0.0154,0.0058,0.0057,0.0056,0.0055,0,0.0425,0.0448,0.0499,0.0536,0.0545,0.0571,0.0597,0.0609,0.0589,0.0574,0.0541,0.0491,0.0439,0.0388,0.0262,0.029,0.0201,0.0131,0.0125,0.009,0.005,0.0038,0.0044,0.0045,0.0045,0.0046,0.0047,0,0.046,0.0504,0.0552,0.0564,0.0597,0.0625,0.0646,0.0645,0.0667,0.0644,0.0647,0.0566,0.0535,0.0414,0.027,0.0265,0.0121,0.0092,-0.0007,-0.0009,0.0003,0.0004,-0.0003,-0.0003,-0.0003,-0.0003,-0.0002,0,0.0499,0.0538,0.058,0.0605,0.0677,0.068,0.0744,0.0748,0.0759,0.0792,0.0712,0.0706,0.054,0.0434,0.0293,0.013,0.0134,0.0002,-0.0033,0.0031,0.0035,-0.0001,0.0,-0.0006,-0.0005,-0.0005,-0.0004,0,0.0527,0.0551,0.0613,0.0668,0.0697,0.0749,0.0822,0.0857,0.0864,0.09,0.0899,0.0811,0.0675,0.0495,0.0294,0.0172,0.0009,-0.0053,0.0035,0.0006,-0.01,-0.0095,-0.0171,-0.0172,-0.0173,-0.0174,-0.0174,0,0.0541,0.0577,0.0664,0.0711,0.0744,0.0823,0.0877,0.0912,0.0952,0.0964,0.0982,0.0871,0.0786,0.0503,0.0304,0.0029,-0.0016,-0.0104,-0.0111,-0.009,-0.0117,-0.011,-0.0103,-0.0176,-0.0176,-0.0176,-0.0177,0,0.0568,0.0604,0.0655,0.0754,0.0829,0.0914,0.0993,0.1032,0.1071,0.1078,0.1049,0.0902,0.0746,0.0512,0.0297,0.0099,-0.0048,-0.0116,-0.0116,-0.0123,-0.0098,-0.0122,-0.0114,-0.018,-0.018,-0.0179,-0.0179,0,0.0589,0.063,0.0701,0.0791,0.0888,0.0976,0.1018,0.1066,0.1108,0.1117,0.1106,0.0939,0.0844,0.0548,0.0353,0.0154,0.0094,0.002,0.0012,0.0014,0.0088,0.0148,0.0115,0,0,0,0,0,0.0602,0.0648,0.0728,0.0826,0.0923,0.0984,0.1081,0.1112,0.1155,0.1144,0.1129,0.0984,0.07,0.058,0.0378,0.0312,0.0046,0.0066,-0.0046,-0.02,-0.0196,-0.0142,0,0,0,0,0,0,0.0608,0.0681,0.0722,0.0841,0.0912,0.1024,0.109,0.112,0.1115,0.1126,0.0981,0.092,0.0644,0.0815,0.037,0.0311,0.0208,-0.0062,-0.0067,-0.0202,-0.0199,-0.0195,-0.0138,0,0,0,0,0]}]]